Location: Krakow
(50.0830°N, 19.9170°E)
Time: 05:37:21
(UTC+01:00)

deb Explorer IX - Visible Passes

Search period start: 30 January 2023 00:00
Search period end: 09 February 2023 00:00
Orbit: 534 x 1049 km, 38.8° (Epoch: 29 January)

Date Brightness Start Highest point End Pass type
(mag) Time Alt. Az. Time Alt. Az. Time Alt. Az.
30 Jan ? 06:39:23 10° SSW 06:41:56 16° S 06:44:33 10° SE visible
31 Jan ? 06:07:05 10° SSW 06:09:32 16° S 06:12:01 10° SE visible
01 Feb ? 05:34:45 10° SSW 05:37:07 15° S 05:39:29 10° SE visible
02 Feb ? 05:03:19 13° SSW 05:04:42 15° S 05:06:59 10° SE visible
03 Feb ? 04:32:29 14° SSE 04:32:29 14° SSE 04:34:28 10° SE visible
03 Feb ? 06:14:48 10° SW 06:17:22 16° S 06:19:56 10° SE visible
04 Feb ? 04:01:36 11° SE 04:01:36 11° SE 04:01:59 10° SE visible
04 Feb ? 05:42:15 10° SW 05:44:53 17° S 05:47:30 10° SE visible
05 Feb ? 05:11:19 16° SSW 05:12:23 17° S 05:15:04 10° SE visible
06 Feb ? 04:40:21 17° S 04:40:21 17° S 04:42:38 10° SE visible
06 Feb ? 06:23:38 10° SW 06:24:56 11° SSW 06:26:14 10° S visible
07 Feb ? 04:09:21 13° SSE 04:09:21 13° SSE 04:10:12 10° SE visible
07 Feb ? 05:50:44 10° SW 05:52:25 12° SSW 05:54:04 10° S visible
08 Feb ? 05:19:00 13° SSW 05:19:52 13° SSW 05:21:50 10° SSE visible
